Content
SEND FEEDBACK

Daily
Averages
Monthly
Summary
United States of America

CAMP QUEZON, GUAM


Home > North America > United States > Guam
Elevation: 269 feet     Latitude: 13 28N     Longitude: 144 48E

WEATHER
 
SELECT A DAY
Number of Records: 209,379;   Date Range: 1/1/95 - 9/21/14
 
SHARE

PRINT THIS DATA

[ ← Previous Day ]
WEATHER ALMANAC - MARCH 27, 2013
[ Next Day → ]
[ °C ]   °F
Weather ElementAverageHighLow
Temperature84.4 °F89.6 °F (12:46 pm)80.6 °F (3:50 am)
Dewpoint72 °F73.4 °F (3:50 am)70 °F (12:54 pm)
Humidity66.6 %79 % (3:50 am)53 % (12:54 pm)
Barometer29.87 in29.92 in (8:54 am)29.83 in (2:54 pm)
Wind Speed14.8 mph23 mph (11:54 am)
Wind Gust31.1 mph (11:54 am)
Weather ElementAverage
Visibility10 mi
Wind DirectionENE (70 °)

Weather ElementTotal
Precipitation---
Cooling Degree Days20.1 (Base 65)
Growing Degree Days35.1 (Base 50)
Averaged from 26 records on March 27, 2013
WEATHER CONDITIONS BREAKOUT
WIND DIRECTION BREAKOUT
WEATHER BY HOUR - MARCH 27, 2013
[ °C ]   °F
Local TimeTemperatureDewpointHumidityBarometerVisibilityWind DirectionWind SpeedGust SpeedPrecipitationEventsConditions
1:54 AM82.0 °F73.0 °F74 %29.86 in10.0 miEast (80°)11.5 mphScattered Clouds
2:54 AM82.0 °F72.0 °F71 %29.85 in10.0 miENE (70°)12.7 mphClear
3:50 AM80.6 °F73.4 °F79 %29.87 in10.0 miENE (70°)10.4 mphMostly Cloudy
3:54 AM81.0 °F73.0 °F77 %29.84 in10.0 miENE (70°)10.4 mphMostly Cloudy
4:08 AM80.6 °F73.4 °F79 %29.87 in10.0 miEast (80°)15.0 mphScattered Clouds
4:54 AM81.0 °F72.0 °F74 %29.85 in10.0 miEast (80°)8.1 mphScattered Clouds
5:54 AM82.0 °F72.0 °F71 %29.87 in10.0 miENE (70°)10.4 mphMostly Cloudy
6:54 AM82.0 °F72.0 °F71 %29.88 in10.0 miENE (70°)12.7 mph0.00 inScattered Clouds
7:54 AM82.9 °F73.0 °F72 %29.90 in10.0 miENE (60°)13.8 mphScattered Clouds
8:54 AM84.9 °F72.0 °F65 %29.92 in10.0 miEast (80°)17.3 mphPartly Cloudy
9:54 AM86.0 °F73.0 °F65 %29.92 in10.0 miEast (90°)18.4 mph25.3 mphPartly Cloudy
10:54 AM87.1 °F71.1 °F59 %29.91 in10.0 miEast (80°)18.4 mph25.3 mphPartly Cloudy
11:54 AM89.1 °F71.1 °F55 %29.88 in10.0 miENE (60°)23.0 mph31.1 mphPartly Cloudy
12:46 PM89.6 °F71.6 °F55 %29.89 in10.0 miENE (60°)20.7 mph26.5 mphMostly Cloudy
12:54 PM89.1 °F70.0 °F53 %29.87 in10.0 miENE (70°)18.4 mph26.5 mphScattered Clouds
1:54 PM88.0 °F70.0 °F55 %29.85 in10.0 miEast (80°)20.7 mph25.3 mphPartly Cloudy
2:54 PM89.1 °F72.0 °F57 %29.83 in10.0 miENE (60°)17.3 mph23.0 mphPartly Cloudy
3:54 PM88.0 °F72.0 °F59 %29.84 in10.0 miENE (60°)18.4 mph23.0 mphScattered Clouds
4:54 PM86.0 °F72.0 °F63 %29.85 in10.0 miENE (60°)19.6 mphScattered Clouds
5:54 PM84.9 °F72.0 °F65 %29.85 in10.0 miENE (60°)15.0 mphPartly Cloudy
6:54 PM84.0 °F72.0 °F67 %29.87 in10.0 miENE (70°)13.8 mph19.6 mphPartly Cloudy
7:54 PM82.9 °F71.1 °F67 %29.88 in10.0 miENE (70°)12.7 mphPartly Cloudy
8:54 PM82.9 °F72.0 °F69 %29.89 in10.0 miENE (70°)11.5 mphClear
9:54 PM82.9 °F73.0 °F72 %29.89 in10.0 miNE (50°)11.5 mphScattered Clouds
10:54 PM82.9 °F72.0 °F69 %29.90 in10.0 miENE (70°)9.2 mphMostly Cloudy
11:54 PM82.9 °F72.0 °F69 %29.90 in10.0 miEast (80°)15.0 mph0.00 inRainLight Rain
Hourly data recorded from PGUM, located miles away from Camp Quezon, Guam







STORIES FROM OUR PARTNERS